Total_Precipitation_Accumulation
0.74 1.23 1.50 1.41 1.42 1.36 1.16 1.09 0.97 0.82 0.81 0.84 0.74 0.72 0.76 0.77 0.74 0.61 0.46 0.37 0.34 0.28 0.21 0.19 0.19 0.23 0.25 0.29 0.35 0.41 0.47 0.64 0.76 0.84 0.94 1.12 1.29 1.46 1.62 1.74 1.64 1.50 1.46 1.62
0.81 1.07 0.84 0.79 0.93 0.96 1.00 1.01 0.87 0.74 0.66 0.65 0.62 0.63 0.66 0.63 0.61 0.50 0.39 0.32 0.25 0.19 0.16 0.12 0.10 0.12 0.15 0.18 0.22 0.28 0.36 0.46 0.58 0.74 0.96 1.17 1.46 1.55 1.64 1.78 1.82 1.76 1.69 1.85
0.86 0.77 0.52 0.61 0.78 0.81 0.80 0.85 0.78 0.69 0.60 0.56 0.53 0.63 0.62 0.56 0.52 0.47 0.36 0.28 0.21 0.15 0.11 0.08 0.07 0.07 0.12 0.13 0.15 0.21 0.34 0.47 0.67 0.91 1.22 1.51 1.74 1.81 1.86 1.82 1.89 1.97 2.02 2.08
0.80 0.57 0.50 0.59 0.66 0.68 0.76 0.58 0.52 0.48 0.54 0.56 0.51 0.70 0.54 0.45 0.45 0.41 0.35 0.32 0.24 0.17 0.12 0.09 0.09 0.09 0.10 0.13 0.17 0.28 0.46 0.65 0.91 1.25 1.60 1.83 2.06 2.15 2.00 1.98 2.02 2.03 1.98 2.01
0.65 0.52 0.49 0.57 0.47 0.44 0.51 0.44 0.51 0.49 0.46 0.40 0.32 0.44 0.42 0.37 0.44 0.36 0.29 0.29 0.29 0.24 0.18 0.15 0.17 0.17 0.20 0.26 0.33 0.49 0.74 1.03 1.31 1.54 1.72 1.93 2.06 2.08 2.05 2.02 2.01 1.94 1.91 1.88
0.48 0.41 0.42 0.39 0.32 0.33 0.36 0.44 0.55 0.57 0.54 0.49 0.28 0.33 0.42 0.37 0.36 0.31 0.26 0.25 0.23 0.23 0.22 0.23 0.26 0.32 0.39 0.43 0.56 0.74 0.92 1.20 1.38 1.49 1.61 1.80 1.95 2.00 2.01 2.00 1.99 1.98 1.96 1.86
0.42 0.35 0.29 0.26 0.30 0.32 0.36 0.56 0.79 0.84 0.78 0.56 0.28 0.40 0.48 0.39 0.31 0.26 0.25 0.25 0.23 0.27 0.30 0.31 0.40 0.54 0.63 0.66 0.75 0.89 0.97 1.14 1.25 1.30 1.38 1.53 1.60 1.67 1.72 1.71 1.67 1.62 1.57 1.56
0.41 0.40 0.26 0.23 0.28 0.30 0.32 0.47 0.78 0.85 0.74 0.53 0.39 0.59 0.58 0.40 0.32 0.29 0.27 0.25 0.28 0.38 0.46 0.57 0.70 0.79 0.86 0.86 0.83 0.85 0.97 1.02 1.00 1.03 1.04 1.16 1.26 1.32 1.39 1.39 1.39 1.42 1.45 1.46
0.34 0.35 0.21 0.15 0.17 0.24 0.30 0.33 0.38 0.55 0.49 0.51 0.50 0.72 0.69 0.41 0.34 0.31 0.30 0.31 0.38 0.53 0.71 0.93 1.10 1.21 1.28 1.19 1.00 0.86 0.86 0.85 0.83 0.88 0.92 0.97 1.07 1.12 1.15 1.18 1.14 1.23 1.27 1.25
0.25 0.33 0.26 0.17 0.17 0.19 0.25 0.33 0.42 0.64 0.80 0.75 0.69 0.84 0.82 0.58 0.46 0.38 0.40 0.51 0.67 0.88 1.14 1.39 1.63 1.74 1.71 1.52 1.24 0.96 0.81 0.77 0.73 0.75 0.81 0.87 0.92 0.93 0.93 0.97 0.92 0.98 1.06 1.06
0.19 0.31 0.29 0.21 0.22 0.25 0.27 0.39 0.48 0.63 0.71 0.92 1.05 1.09 0.86 0.77 0.69 0.66 0.72 0.90 1.12 1.39 1.58 1.72 1.86 1.90 1.64 1.46 1.21 0.95 0.80 0.82 0.83 0.81 0.81 0.82 0.79 0.78 0.77 0.76 0.74 0.76 0.83 0.82
0.15 0.26 0.31 0.21 0.18 0.22 0.37 0.55 0.72 1.01 0.94 0.91 1.14 1.21 0.88 0.81 0.84 0.88 0.99 1.05 1.15 1.31 1.32 1.40 1.45 1.40 1.35 1.31 1.13 0.97 0.89 0.89 0.93 0.91 0.89 0.81 0.73 0.70 0.70 0.67 0.60 0.61 0.60 0.59
0.21 0.35 0.42 0.37 0.40 0.43 0.50 0.53 0.60 0.77 0.87 0.91 1.18 1.29 0.87 0.79 0.78 0.92 1.10 1.15 1.22 1.24 1.14 1.14 1.14 1.15 1.17 1.14 1.03 1.01 0.98 0.99 0.98 0.95 0.85 0.77 0.70 0.62 0.57 0.50 0.47 0.54 0.56 0.62
0.22 0.36 0.47 0.57 0.56 0.54 0.61 0.57 0.49 0.59 0.87 0.93 1.10 1.12 0.91 0.83 0.79 0.87 0.99 1.08 1.04 0.97 0.91 0.90 0.94 0.98 1.06 1.04 1.01 0.96 0.91 0.95 1.05 1.09 0.99 0.88 0.77 0.66 0.61 0.53 0.48 0.48 0.51 0.58
0.16 0.18 0.20 0.22 0.23 0.31 0.51 0.61 0.59 0.56 0.62 0.85 0.86 0.79 0.74 0.69 0.71 0.72 0.75 0.72 0.64 0.59 0.60 0.64 0.67 0.68 0.64 0.61 0.64 0.68 0.74 0.85 0.99 1.13 1.11 0.97 0.78 0.65 0.59 0.55 0.48 0.46 0.48 0.49
0.09 0.10 0.10 0.10 0.11 0.20 0.34 0.45 0.46 0.44 0.43 0.52 0.59 0.58 0.48 0.47 0.51 0.51 0.52 0.47 0.44 0.40 0.37 0.35 0.36 0.36 0.36 0.33 0.30 0.30 0.37 0.53 0.78 1.04 1.01 0.80 0.62 0.50 0.46 0.46 0.46 0.42 0.41 0.47
0.05 0.08 0.11 0.11 0.09 0.16 0.37 0.40 0.38 0.38 0.31 0.31 0.37 0.37 0.33 0.36 0.42 0.43 0.46 0.46 0.35 0.28 0.26 0.26 0.25 0.23 0.22 0.21 0.19 0.21 0.29 0.41 0.58 0.69 0.66 0.56 0.46 0.44 0.47 0.49 0.44 0.43 0.43 0.44
0.04 0.07 0.12 0.13 0.15 0.40 0.64 0.56 0.47 0.43 0.24 0.17 0.18 0.20 0.23 0.34 0.37 0.37 0.36 0.35 0.34 0.25 0.18 0.18 0.17 0.16 0.17 0.18 0.22 0.25 0.29 0.36 0.41 0.43 0.44 0.39 0.37 0.39 0.42 0.43 0.43 0.49 0.55 0.52
0.07 0.15 0.20 0.21 0.28 0.49 0.59 0.52 0.51 0.50 0.35 0.15 0.12 0.13 0.13 0.13 0.15 0.17 0.18 0.16 0.16 0.13 0.10 0.10 0.09 0.08 0.09 0.08 0.09 0.10 0.12 0.14 0.15 0.15 0.16 0.17 0.17 0.19 0.21 0.23 0.29 0.40 0.47 0.50
0.10 0.17 0.24 0.26 0.35 0.48 0.40 0.25 0.26 0.39 0.47 0.13 0.07 0.07 0.05 0.04 0.07 0.09 0.10 0.12 0.08 0.07 0.07 0.07 0.06 0.06 0.07 0.06 0.04 0.03 0.03 0.04 0.04 0.03 0.04 0.06 0.07 0.08 0.09 0.12 0.16 0.22 0.23 0.29
0.10 0.16 0.21 0.27 0.46 0.65 0.47 0.26 0.24 0.43 0.43 0.10 0.04 0.03 0.02 0.04 0.03 0.04 0.07 0.09 0.08 0.07 0.08 0.07 0.07 0.07 0.07 0.07 0.05 0.04 0.04 0.03 0.03 0.04 0.04 0.05 0.05 0.05 0.06 0.07 0.09 0.13 0.14 0.19
0.12 0.19 0.23 0.35 0.63 0.84 0.65 0.43 0.36 0.28 0.12 0.04 0.01 0.01 0.01 0.02 0.02 0.03 0.05 0.07 0.07 0.07 0.08 0.07 0.06 0.07 0.07 0.06 0.05 0.05 0.05 0.04 0.04 0.04 0.04 0.04 0.05 0.06 0.06 0.06 0.08 0.10 0.11 0.13
0.08 0.10 0.14 0.27 0.49 0.53 0.48 0.37 0.26 0.18 0.08 0.02 0.01 0.01 0.01 0.01 0.01 0.03 0.04 0.04 0.04 0.05 0.06 0.06 0.07 0.06 0.06 0.06 0.05 0.05 0.05 0.05 0.04 0.04 0.03 0.04 0.05 0.05 0.06 0.07 0.09 0.09 0.10 0.12
0.06 0.05 0.07 0.08 0.13 0.17 0.20 0.19 0.12 0.10 0.06 0.01 0.01 0.01 0.01 0.01 0.01 0.02 0.04 0.06 0.05 0.04 0.05 0.06 0.07 0.07 0.07 0.08 0.07 0.08 0.07 0.05 0.04 0.03 0.03 0.04 0.04 0.05 0.06 0.08 0.09 0.10 0.10 0.12
0.06 0.08 0.09 0.08 0.05 0.05 0.09 0.11 0.09 0.06 0.03 0.01 0.01 0.01 0.01 0.01 0.02 0.02 0.03 0.07 0.07 0.06 0.07 0.09 0.10 0.09 0.08 0.09 0.10 0.11 0.11 0.08 0.05 0.04 0.03 0.03 0.04 0.04 0.05 0.05 0.05 0.07 0.08 0.11
0.03 0.05 0.08 0.07 0.05 0.04 0.06 0.06 0.05 0.03 0.01 0.01 0.00 0.00 0.00 0.01 0.01 0.02 0.02 0.04 0.06 0.07 0.06 0.07 0.09 0.09 0.08 0.08 0.09 0.10 0.12 0.11 0.10 0.06 0.04 0.03 0.03 0.05 0.05 0.06 0.06 0.07 0.08 0.12